SL-16 DEB, 39714

Orbit data source: Space-Track

SL-16 DEB, 39714 is space debris in LEO originally from a launch on Fri, 25 Dec 1992 UTC launched from the Tyuratam Missile And Space Complex (TTMTR). Debris objects in space refer to the collection of defunct objects orbiting the Earth. Examples of debris include non-operational satellites, rocket bodies, and fragments generated from explosions, collisions, or faulty payload assembly.

Loading next visibility...
Identifier
39714, 1992-093KE
Orbit
LEO
Country
Flag of CISCIS
Related business
Manufacturer
Unknown
Mission
Spacecraft
Bus & Motor
Unknown
Mass
Unknown
Launch date (UTC)
1992-12-25 (33 years ago)
Launch vehicle
Unknown
Launch site
Tyuratam Missile And Space Complex (TTMTR)
Object type
Payload
Rocket body
Debris
Shape & HBR
Unknown shape, 0.1 m
Radar Cross Section
Small (<0.1 m²)

Expand to show TLE details & history
Last TLE update: 4 days ago

TLE from 4 days ago
0 SL-16 DEB
1 39714U 92093KE  26123.38320322  .00000379  00000-0  17434-3 0  9995
2 39714  71.0813 119.7628 0094425 214.5312 144.9661 14.24954757646221
Epoch: 2026-05-03T09:11Z
TLE epoch observation values (Epoch: 2026-05-03T09:11:48.758Z)
Latitude
-0.00003°
Longitude
120.52209°
Altitude
866.844 km
Speed
7.39 km/s
True Right ascension
07h 59m 03s
True Declination
0° 00' 00"
Sunlit
Object was in daylight at epoch
Visualization orbit readout
Latitude
Unknown
Longitude
Unknown
Altitude
Unknown
Speed
Unknown
Apparent Right ascension
Unknown
Apparent Declination
Unknown
Sunlit
N/A
Visualization observer readout
Local Sidereal Time
17:20:31
Azimuth
Unknown
Elevation
Unknown
Doppler factor
Unknown
Orbital elements
Apogee altitude
874.393 km
Perigee altitude
738.71 km
Semi-major axis
7,184.689 km
Eccentricity
0.00944
Inclination
71.0813°
RAAN
119.7628°
Arg. of periapsis
214.5312°
True anomaly
145.58129°
Mean anomaly
144.9661°
Eccentric anomaly
145.27429°
Mean motion
3.56395 °/min
Orbital period
101.01 mins
BSTAR
0.00017434
Loading maneuver chart data...
Computing Atmospheric mass density...
Loading historical data...
Loading historical data...
Loading historical data...
Loading historical data...
Loading historical data...
Loading historical data...
Loading historical data...

Documentation

Showing up to 5 results
|